sat.trackr.live / text

‹ back to catalog

ICEYE-X78

NORAD 68995 · 2026-100R

PAYLOAD ACTIVE UNKNOWN

§ Identity

Operator
Country
POL
Launch date
2026-05-03
Launch site
AFWTR
Launch vehicle
Mass (kg)
RCS (m²)

External: N2YO · Heavens-Above · Gunter

§ Orbital elements

Epoch: 2026-09-20T04:26:05.017056Z

Period
96.52 min
Inclination
97.7234°
Eccentricity
0.0002934
Mean motion
14.91902715 rev/d
Perigee alt
590.0 km
Apogee alt
594.0 km
Semi-major
6,970.1 km
B*
7.0554e-5
RAAN
158.8184°
Arg perigee
139.7898°
Mean anomaly
220.3538°
Rev number
2,086

§ Raw data

ICEYE-X781 68995U 26100R   26263.18478029  .00000658  00000+0  70554-4 0  99972 68995  97.7234 158.8184 0002934 139.7898 220.3538 14.91902715 20867

JSON: /api/v1/satellites/68995 · /tle

For live sub-satellite position, see the globe view (requires WebGL).

§ Visibility from observer

Set your observer location to see the next 7 days of passes ≥ 10°. The values pass through the URL so the page stays shareable.

No JS? Fill the form by hand. The geolocation button needs JavaScript.

§ Radio — SatNOGS DB

ModeDescriptionDownlinkUplink
UNKNOWN S-band telemetry 2.270 GHz

1 transmitter · refreshed weekly from db.satnogs.org